Location: McFarlands Corners
(41.4117°N, 81.3382°W)
Time: 13:44:30
(UTC+00:00)

Tiros 1 despin weight - Pass Details

Date: 17 February 2026
Orbit: 556 x 593 km, 48.2° (Epoch: 11 March)

Event Time Altitude Azimuth Distance (km) Brightness Sun altitude
Rises 23:31:20 0° 288° (WNW) 2,733 ? -6.2°
Reaches altitude 10° 23:33:46 10° 299° (WNW) 1,837 ? -6.7°
Maximum altitude 23:37:33 32° 3° (N) 970 ? -7.4°
Drops below altitude 10° 23:41:20 10° 68° (ENE) 1,840 ? -8.1°
Enters shadow 23:41:24 10° 68° (ENE) 1,864 ? -8.1°
Sets 23:43:47 0° 78° (ENE) 2,739 - -8.5°
